CARTOSAT-2C

Last updated on Mon Sep 21 2026 00:02:46 GMT+0000 (Coordinated Universal Time)

1 41599U 16040A 26263.62927909 .00003263 00000+0 15767-3 0 9994 2 41599 97.4388 322.2398 0009647 153.2082 206.9653 15.19297037568201
UTC large
Height (km)
Speed (km/s)
/
Latitude / Longitude
Inclination (degrees)
Orbital Period (minutes)
Azimuth
Elevation
Range (km)
Doppler Factor

Next 0 passes for location: London (51.5072 / 0.1276)

No passes found over London.
CARTOSAT-2C